Time,TemperatureF,DewpointF,PressureIn,WindDirection,WindDirectionDegrees,WindSpeedMPH,WindSpeedGustMPH,Humidity,HourlyPrecipIn,Conditions,Clouds,dailyrainin,SoftwareType,DateUTC
2013-02-15 00:00:00,49.4,40.0,30.08,SSE,154,0.0,0.0,70,0.00,CLR,,0.00,WeatherDisplay:10.37,2013-02-15 06:00:00,
2013-02-15 00:05:00,49.0,39.6,30.08,SSE,153,0.0,0.0,70,0.00,CLR,,0.00,WeatherDisplay:10.37,2013-02-15 06:05:00,
2013-02-15 00:10:00,48.8,39.8,30.08,SSW,199,0.0,0.0,71,0.00,CLR,,0.00,WeatherDisplay:10.37,2013-02-15 06:10:00,
2013-02-15 00:15:00,48.9,39.9,30.08,SW,219,0.0,0.0,71,0.00,CLR,,0.00,WeatherDisplay:10.37,2013-02-15 06:15:00,
2013-02-15 00:20:00,49.0,40.0,30.08,SW,219,0.0,0.0,71,0.00,CLR,,0.00,WeatherDisplay:10.37,2013-02-15 06:20:00,
2013-02-15 00:25:00,49.2,40.2,30.08,SW,219,0.0,0.0,71,0.00,CLR,,0.00,WeatherDisplay:10.37,2013-02-15 06:25:00,
2013-02-15 00:30:00,49.3,39.9,30.09,SW,219,0.0,0.0,70,0.00,CLR,,0.00,WeatherDisplay:10.37,2013-02-15 06:30:00,
2013-02-15 00:35:00,49.5,40.1,30.09,West,278,1.1,1.1,70,0.00,CLR,,0.00,WeatherDisplay:10.37,2013-02-15 06:35:00,
2013-02-15 00:40:00,49.6,40.2,30.09,West,276,1.1,1.1,70,0.00,CLR,,0.00,WeatherDisplay:10.37,2013-02-15 06:40:00,
2013-02-15 00:45:00,49.4,40.4,30.09,WSW,256,0.0,0.0,71,0.00,CLR,,0.00,WeatherDisplay:10.37,2013-02-15 06:45:00,
2013-02-15 00:50:00,49.4,40.4,30.09,WSW,240,0.0,0.0,71,0.00,CLR,,0.00,WeatherDisplay:10.37,2013-02-15 06:50:00,
2013-02-15 00:55:00,49.4,40.4,30.09,WSW,258,0.0,0.0,71,0.00,CLR,,0.00,WeatherDisplay:10.37,2013-02-15 06:55:00,
2013-02-15 01:00:00,49.3,40.7,30.10,West,263,0.0,0.0,72,0.00,CLR,,0.00,WeatherDisplay:10.37,2013-02-15 07:00:00,
2013-02-15 01:05:00,49.2,40.6,30.10,West,264,0.0,0.0,72,0.00,CLR,,0.00,WeatherDisplay:10.37,2013-02-15 07:05:00,
2013-02-15 01:10:00,48.9,40.3,30.09,West,264,0.0,0.0,72,0.00,CLR,,0.00,WeatherDisplay:10.37,2013-02-15 07:10:00,
2013-02-15 01:15:00,48.4,39.4,30.10,West,264,0.0,0.0,71,0.00,CLR,,0.00,WeatherDisplay:10.37,2013-02-15 07:15:00,
2013-02-15 01:20:00,47.2,38.6,30.10,West,264,0.0,0.0,72,0.00,CLR,,0.00,WeatherDisplay:10.37,2013-02-15 07:20:00,
2013-02-15 01:25:00,46.3,39.1,30.09,West,264,0.0,0.0,76,0.00,CLR,,0.00,WeatherDisplay:10.37,2013-02-15 07:25:00,
2013-02-15 01:30:00,45.3,38.2,30.10,South,191,0.0,0.0,76,0.00,CLR,,0.00,WeatherDisplay:10.37,2013-02-15 07:30:00,
2013-02-15 01:35:00,44.4,38.0,30.10,South,191,0.0,0.0,78,0.00,CLR,,0.00,WeatherDisplay:10.37,2013-02-15 07:35:00,
2013-02-15 01:40:00,44.0,37.9,30.10,South,191,0.0,0.0,79,0.00,CLR,,0.00,WeatherDisplay:10.37,2013-02-15 07:40:00,
2013-02-15 01:45:00,43.8,38.3,30.10,South,191,0.0,0.0,81,0.00,CLR,,0.00,WeatherDisplay:10.37,2013-02-15 07:45:00,
2013-02-15 01:50:00,44.3,39.2,30.10,South,191,0.0,0.0,82,0.00,CLR,,0.00,WeatherDisplay:10.37,2013-02-15 07:50:00,
2013-02-15 01:55:00,44.4,39.2,30.10,South,191,0.0,0.0,82,0.00,CLR,,0.00,WeatherDisplay:10.37,2013-02-15 07:55:00,
2013-02-15 02:00:00,44.7,39.9,30.10,South,191,0.0,0.0,83,0.00,CLR,,0.00,WeatherDisplay:10.37,2013-02-15 08:00:00,
2013-02-15 02:05:00,45.3,40.1,30.10,South,191,0.0,0.0,82,0.00,CLR,,0.00,WeatherDisplay:10.37,2013-02-15 08:05:00,
2013-02-15 02:10:00,45.6,40.1,30.10,South,191,0.0,0.0,81,0.00,CLR,,0.00,WeatherDisplay:10.37,2013-02-15 08:10:00,
2013-02-15 02:15:00,46.0,40.2,30.10,South,191,0.0,0.0,80,0.00,CLR,,0.00,WeatherDisplay:10.37,2013-02-15 08:15:00,
2013-02-15 02:20:00,46.0,39.9,30.10,SSW,194,0.0,0.0,79,0.00,CLR,,0.00,WeatherDisplay:10.37,2013-02-15 08:20:00,
2013-02-15 02:25:00,46.3,40.5,30.10,WSW,256,0.0,0.0,80,0.00,CLR,,0.00,WeatherDisplay:10.37,2013-02-15 08:25:00,
2013-02-15 02:30:00,47.0,40.8,30.10,West,260,0.0,0.0,79,0.00,CLR,,0.00,WeatherDisplay:10.37,2013-02-15 08:30:00,
2013-02-15 02:35:00,47.2,40.7,30.10,West,260,0.0,0.0,78,0.00,CLR,,0.00,WeatherDisplay:10.37,2013-02-15 08:35:00,
2013-02-15 02:40:00,47.1,40.3,30.10,NW,321,0.0,0.0,77,0.00,CLR,,0.00,WeatherDisplay:10.37,2013-02-15 08:40:00,
2013-02-15 02:45:00,46.5,40.0,30.10,WNW,291,0.0,0.0,78,0.00,CLR,,0.00,WeatherDisplay:10.37,2013-02-15 08:45:00,
2013-02-15 02:50:00,46.3,40.1,30.10,WNW,290,0.0,0.0,79,0.00,CLR,,0.00,WeatherDisplay:10.37,2013-02-15 08:50:00,
2013-02-15 02:55:00,45.9,39.8,30.10,NW,323,2.3,2.3,79,0.00,CLR,,0.00,WeatherDisplay:10.37,2013-02-15 08:55:00,
2013-02-15 03:00:00,45.1,39.0,30.10,NW,323,0.0,0.0,79,0.00,CLR,,0.00,WeatherDisplay:10.37,2013-02-15 09:00:00,
2013-02-15 03:05:00,44.6,39.4,30.10,NW,323,0.0,0.0,82,0.00,CLR,,0.00,WeatherDisplay:10.37,2013-02-15 09:05:00,
2013-02-15 03:10:00,44.7,39.9,30.10,NW,326,2.3,2.3,83,0.00,CLR,,0.00,WeatherDisplay:10.37,2013-02-15 09:10:00,
2013-02-15 03:15:00,44.6,39.4,30.10,NNW,328,0.0,0.0,82,0.00,CLR,,0.00,WeatherDisplay:10.37,2013-02-15 09:15:00,
2013-02-15 03:20:00,44.1,39.0,30.10,NNW,327,0.0,0.0,82,0.00,CLR,,0.00,WeatherDisplay:10.37,2013-02-15 09:20:00,
2013-02-15 03:25:00,43.5,38.4,30.10,NNW,328,0.0,0.0,82,0.00,CLR,,0.00,WeatherDisplay:10.37,2013-02-15 09:25:00,
2013-02-15 03:30:00,42.5,37.4,30.10,NNW,327,0.0,0.0,82,0.00,CLR,,0.00,WeatherDisplay:10.37,2013-02-15 09:30:00,
2013-02-15 03:35:00,41.9,37.4,30.10,NNW,328,0.0,0.0,84,0.00,CLR,,0.00,WeatherDisplay:10.37,2013-02-15 09:35:00,
2013-02-15 03:40:00,41.5,37.3,30.11,NNW,328,0.0,0.0,85,0.00,CLR,,0.00,WeatherDisplay:10.37,2013-02-15 09:40:00,
2013-02-15 03:45:00,41.1,37.2,30.10,NW,325,0.0,0.0,86,0.00,CLR,,0.00,WeatherDisplay:10.37,2013-02-15 09:45:00,
2013-02-15 03:50:00,40.8,37.2,30.10,NW,326,0.0,0.0,87,0.00,CLR,,0.00,WeatherDisplay:10.37,2013-02-15 09:50:00,
2013-02-15 03:55:00,40.7,37.4,30.11,NW,325,0.0,0.0,88,0.00,CLR,,0.00,WeatherDisplay:10.37,2013-02-15 09:55:00,
2013-02-15 04:00:00,40.5,37.2,30.10,NW,325,0.0,0.0,88,0.00,CLR,,0.00,WeatherDisplay:10.37,2013-02-15 10:00:00,
2013-02-15 04:05:00,40.3,37.0,30.10,NW,326,0.0,0.0,88,0.00,CLR,,0.00,WeatherDisplay:10.37,2013-02-15 10:05:00,
2013-02-15 04:10:00,40.8,38.1,30.11,WNW,291,3.5,3.5,90,0.00,CLR,,0.00,WeatherDisplay:10.37,2013-02-15 10:10:00,
2013-02-15 04:15:00,41.1,38.1,30.11,West,278,0.0,0.0,89,0.00,CLR,,0.00,WeatherDisplay:10.37,2013-02-15 10:15:00,
2013-02-15 04:20:00,41.2,38.2,30.11,West,281,0.0,0.0,89,0.00,CLR,,0.00,WeatherDisplay:10.37,2013-02-15 10:20:00,
2013-02-15 04:25:00,41.1,38.1,30.11,West,281,0.0,0.0,89,0.00,CLR,,0.00,WeatherDisplay:10.37,2013-02-15 10:25:00,
2013-02-15 04:30:00,40.8,37.5,30.11,West,281,0.0,0.0,88,0.00,CLR,,0.00,WeatherDisplay:10.37,2013-02-15 10:30:00,
2013-02-15 04:35:00,40.7,38.0,30.11,West,281,0.0,0.0,90,0.00,CLR,,0.00,WeatherDisplay:10.37,2013-02-15 10:35:00,
2013-02-15 04:40:00,41.5,39.3,30.11,NNW,328,2.3,2.3,92,0.00,CLR,,0.00,WeatherDisplay:10.37,2013-02-15 10:40:00,
2013-02-15 04:45:00,42.0,39.0,30.11,NNW,345,0.0,0.0,89,0.00,CLR,,0.00,WeatherDisplay:10.37,2013-02-15 10:45:00,
2013-02-15 04:50:00,41.8,38.5,30.11,NNW,346,0.0,0.0,88,0.00,CLR,,0.00,WeatherDisplay:10.37,2013-02-15 10:50:00,
2013-02-15 04:55:00,41.7,38.7,30.11,NNW,345,0.0,0.0,89,0.00,CLR,,0.00,WeatherDisplay:10.37,2013-02-15 10:55:00,
2013-02-15 05:00:00,41.3,38.0,30.11,NNW,346,0.0,0.0,88,0.00,CLR,,0.00,WeatherDisplay:10.37,2013-02-15 11:00:00,
2013-02-15 05:05:00,41.8,39.1,30.11,NW,326,3.5,3.5,90,0.00,CLR,,0.00,WeatherDisplay:10.37,2013-02-15 11:05:00,
2013-02-15 05:10:00,41.9,38.9,30.11,NW,324,0.0,0.0,89,0.00,CLR,,0.00,WeatherDisplay:10.37,2013-02-15 11:10:00,
2013-02-15 05:15:00,41.3,37.7,30.11,NW,325,0.0,0.0,87,0.00,CLR,,0.00,WeatherDisplay:10.37,2013-02-15 11:15:00,
2013-02-15 05:20:00,40.6,37.3,30.11,NW,324,0.0,0.0,88,0.00,CLR,,0.00,WeatherDisplay:10.37,2013-02-15 11:20:00,
2013-02-15 05:25:00,40.7,37.7,30.12,NW,325,0.0,0.0,89,0.00,CLR,,0.00,WeatherDisplay:10.37,2013-02-15 11:25:00,
2013-02-15 05:30:00,40.5,37.5,30.11,NW,324,0.0,0.0,89,0.00,CLR,,0.00,WeatherDisplay:10.37,2013-02-15 11:30:00,
2013-02-15 05:35:00,40.1,37.1,30.12,WNW,285,0.0,0.0,89,0.00,CLR,,0.00,WeatherDisplay:10.37,2013-02-15 11:35:00,
2013-02-15 05:40:00,39.8,37.1,30.12,WNW,288,0.0,0.0,90,0.00,CLR,,0.00,WeatherDisplay:10.37,2013-02-15 11:40:00,
2013-02-15 05:45:00,39.5,36.8,30.13,WNW,288,0.0,0.0,90,0.00,CLR,,0.00,WeatherDisplay:10.37,2013-02-15 11:45:00,
2013-02-15 05:50:00,39.9,37.8,30.13,NNW,331,2.3,2.3,92,0.00,CLR,,0.00,WeatherDisplay:10.37,2013-02-15 11:50:00,
2013-02-15 05:55:00,40.8,38.7,30.14,NW,326,3.5,3.5,92,0.00,CLR,,0.00,WeatherDisplay:10.37,2013-02-15 11:55:00,
2013-02-15 06:00:00,41.3,38.6,30.13,NNW,333,0.0,0.0,90,0.00,CLR,,0.00,WeatherDisplay:10.37,2013-02-15 12:00:00,
2013-02-15 06:05:00,40.8,37.8,30.13,NNW,330,0.0,0.0,89,0.00,CLR,,0.00,WeatherDisplay:10.37,2013-02-15 12:05:00,
2013-02-15 06:10:00,40.4,37.4,30.14,NNW,333,0.0,0.0,89,0.00,CLR,,0.00,WeatherDisplay:10.37,2013-02-15 12:10:00,
2013-02-15 06:15:00,40.3,37.6,30.14,NNW,331,0.0,0.0,90,0.00,CLR,,0.00,WeatherDisplay:10.37,2013-02-15 12:15:00,
2013-02-15 06:20:00,40.3,37.9,30.14,NNW,333,0.0,0.0,91,0.00,CLR,,0.00,WeatherDisplay:10.37,2013-02-15 12:20:00,
2013-02-15 06:25:00,40.9,38.8,30.15,NW,307,3.5,3.5,92,0.00,CLR,,0.00,WeatherDisplay:10.37,2013-02-15 12:25:00,
2013-02-15 06:30:00,41.6,39.2,30.15,NW,319,2.3,2.3,91,0.00,CLR,,0.00,WeatherDisplay:10.37,2013-02-15 12:30:00,
2013-02-15 06:35:00,41.9,39.2,30.15,NW,321,1.1,1.1,90,0.00,CLR,,0.00,WeatherDisplay:10.37,2013-02-15 12:35:00,
2013-02-15 06:40:00,41.9,38.9,30.15,NW,321,0.0,0.0,89,0.00,CLR,,0.00,WeatherDisplay:10.37,2013-02-15 12:40:00,
2013-02-15 06:45:00,41.7,38.7,30.15,NW,321,0.0,0.0,89,0.00,CLR,,0.00,WeatherDisplay:10.37,2013-02-15 12:45:00,
2013-02-15 06:50:00,40.9,37.6,30.15,NW,321,0.0,0.0,88,0.00,CLR,,0.00,WeatherDisplay:10.37,2013-02-15 12:50:00,
2013-02-15 06:55:00,40.3,37.0,30.15,NW,321,0.0,0.0,88,0.00,CLR,,0.00,WeatherDisplay:10.37,2013-02-15 12:55:00,
2013-02-15 07:00:00,39.8,36.8,30.15,NW,321,0.0,0.0,89,0.00,CLR,,0.00,WeatherDisplay:10.37,2013-02-15 13:00:00,
2013-02-15 07:05:00,39.7,37.0,30.16,NW,322,0.0,0.0,90,0.00,CLR,,0.00,WeatherDisplay:10.37,2013-02-15 13:05:00,
2013-02-15 07:10:00,39.8,37.4,30.16,West,271,1.1,1.1,91,0.00,CLR,,0.00,WeatherDisplay:10.37,2013-02-15 13:10:00,
2013-02-15 07:15:00,40.2,38.1,30.16,NW,324,1.1,1.1,92,0.00,CLR,,0.00,WeatherDisplay:10.37,2013-02-15 13:15:00,
2013-02-15 07:20:00,41.0,38.6,30.16,WNW,297,0.0,0.0,91,0.00,CLR,,0.00,WeatherDisplay:10.37,2013-02-15 13:20:00,
2013-02-15 07:25:00,41.0,38.3,30.17,NW,305,3.5,3.5,90,0.00,CLR,,0.00,WeatherDisplay:10.37,2013-02-15 13:25:00,
2013-02-15 07:30:00,41.3,38.6,30.17,NW,321,3.5,3.5,90,0.00,CLR,,0.00,WeatherDisplay:10.37,2013-02-15 13:30:00,
2013-02-15 07:35:00,41.6,38.6,30.18,WNW,291,4.6,4.6,89,0.00,CLR,,0.00,WeatherDisplay:10.37,2013-02-15 13:35:00,
2013-02-15 07:40:00,42.2,39.2,30.18,NW,314,4.6,4.6,89,0.00,CLR,,0.00,WeatherDisplay:10.37,2013-02-15 13:40:00,
2013-02-15 07:45:00,42.6,39.3,30.18,North,349,3.5,3.5,88,0.00,CLR,,0.00,WeatherDisplay:10.37,2013-02-15 13:45:00,
2013-02-15 07:50:00,43.0,39.7,30.18,NNW,345,0.0,0.0,88,0.00,CLR,,0.00,WeatherDisplay:10.37,2013-02-15 13:50:00,
2013-02-15 07:55:00,43.4,40.1,30.19,NNW,334,3.5,3.5,88,0.00,CLR,,0.00,WeatherDisplay:10.37,2013-02-15 13:55:00,
2013-02-15 08:00:00,43.5,39.9,30.20,WNW,302,4.6,4.6,87,0.00,CLR,,0.00,WeatherDisplay:10.37,2013-02-15 14:00:00,
2013-02-15 08:05:00,43.5,39.9,30.20,NW,321,8.1,8.1,87,0.00,CLR,,0.00,WeatherDisplay:10.37,2013-02-15 14:05:00,
2013-02-15 08:10:00,43.7,40.1,30.20,NW,311,6.9,6.9,87,0.00,CLR,,0.00,WeatherDisplay:10.37,2013-02-15 14:10:00,
2013-02-15 08:15:00,44.1,40.5,30.21,NNW,328,11.5,11.5,87,0.00,CLR,,0.00,WeatherDisplay:10.37,2013-02-15 14:15:00,
2013-02-15 08:20:00,44.6,41.0,30.21,NW,321,8.1,8.1,87,0.00,CLR,,0.00,WeatherDisplay:10.37,2013-02-15 14:20:00,
2013-02-15 08:25:00,45.2,41.3,30.22,NNW,339,9.2,9.2,86,0.00,CLR,,0.00,WeatherDisplay:10.37,2013-02-15 14:25:00,
2013-02-15 08:30:00,45.7,41.8,30.22,NW,319,4.6,4.6,86,0.00,CLR,,0.00,WeatherDisplay:10.37,2013-02-15 14:30:00,
2013-02-15 08:35:00,46.4,42.4,30.22,NW,316,5.8,5.8,86,0.00,CLR,,0.00,WeatherDisplay:10.37,2013-02-15 14:35:00,
2013-02-15 08:40:00,47.0,42.7,30.22,NNW,340,9.2,9.2,85,0.00,CLR,,0.00,WeatherDisplay:10.37,2013-02-15 14:40:00,
2013-02-15 08:45:00,47.9,43.3,30.23,NW,325,8.1,8.1,84,0.00,CLR,,0.00,WeatherDisplay:10.37,2013-02-15 14:45:00,
2013-02-15 08:50:00,48.8,43.9,30.23,NNE,13,5.8,5.8,83,0.00,CLR,,0.00,WeatherDisplay:10.37,2013-02-15 14:50:00,
2013-02-15 08:55:00,49.7,44.1,30.23,North,349,11.5,11.5,81,0.00,CLR,,0.00,WeatherDisplay:10.37,2013-02-15 14:55:00,
2013-02-15 09:00:00,50.5,44.6,30.24,NNE,32,6.9,6.9,80,0.00,CLR,,0.00,WeatherDisplay:10.37,2013-02-15 15:00:00,
2013-02-15 09:05:00,51.4,45.4,30.24,North,357,7.0,7.0,80,0.00,CLR,,0.00,WeatherDisplay:10.37,2013-02-15 15:05:00,
2013-02-15 09:10:00,52.0,45.0,30.24,North,351,10.4,10.4,77,0.00,CLR,,0.00,WeatherDisplay:10.37,2013-02-15 15:10:00,
2013-02-15 09:15:00,52.7,45.7,30.24,NNE,18,6.0,6.0,77,0.00,CLR,,0.00,WeatherDisplay:10.37,2013-02-15 15:15:00,
2013-02-15 09:20:00,53.4,45.7,30.24,NNE,17,10.4,10.4,75,0.00,CLR,,0.00,WeatherDisplay:10.37,2013-02-15 15:20:00,
2013-02-15 09:25:00,54.2,46.1,30.24,North,9,9.2,9.2,74,0.00,CLR,,0.00,WeatherDisplay:10.37,2013-02-15 15:25:00,
2013-02-15 09:30:00,54.8,46.3,30.24,NNW,345,6.9,7.3,73,0.00,CLR,,0.00,WeatherDisplay:10.37,2013-02-15 15:30:00,
2013-02-15 09:35:00,55.7,46.8,30.24,NNE,25,8.1,8.1,72,0.00,CLR,,0.00,WeatherDisplay:10.37,2013-02-15 15:35:00,
2013-02-15 09:40:00,56.6,46.5,30.24,NE,44,11.5,11.5,69,0.00,CLR,,0.00,WeatherDisplay:10.37,2013-02-15 15:40:00,
2013-02-15 09:45:00,56.9,46.4,30.24,NW,311,11.5,11.5,68,0.00,CLR,,0.00,WeatherDisplay:10.37,2013-02-15 15:45:00,
2013-02-15 09:50:00,57.5,47.0,30.24,NNE,12,11.5,11.5,68,0.00,CLR,,0.00,WeatherDisplay:10.37,2013-02-15 15:50:00,
2013-02-15 09:55:00,57.9,46.6,30.24,North,354,12.7,12.7,66,0.00,CLR,,0.00,WeatherDisplay:10.37,2013-02-15 15:55:00,
2013-02-15 10:00:00,58.4,47.1,30.24,NNE,25,10.4,10.4,66,0.00,CLR,,0.00,WeatherDisplay:10.37,2013-02-15 16:00:00,
2013-02-15 10:05:00,58.7,47.0,30.24,NNW,347,11.5,11.5,65,0.00,CLR,,0.00,WeatherDisplay:10.37,2013-02-15 16:05:00,
2013-02-15 10:10:00,59.1,46.9,30.24,NNW,330,9.2,9.2,64,0.00,CLR,,0.00,WeatherDisplay:10.37,2013-02-15 16:10:00,
2013-02-15 10:15:00,59.4,46.8,30.24,North,349,11.5,11.5,63,0.00,CLR,,0.00,WeatherDisplay:10.37,2013-02-15 16:15:00,
2013-02-15 10:20:00,59.6,47.0,30.24,NNW,335,8.1,8.1,63,0.00,CLR,,0.00,WeatherDisplay:10.37,2013-02-15 16:20:00,
2013-02-15 10:25:00,60.0,46.9,30.24,NNE,13,6.0,6.0,62,0.00,CLR,,0.00,WeatherDisplay:10.37,2013-02-15 16:25:00,
2013-02-15 10:30:00,60.5,47.0,30.24,NNW,335,8.1,8.1,61,0.00,CLR,,0.00,WeatherDisplay:10.37,2013-02-15 16:30:00,
2013-02-15 10:35:00,60.8,47.3,30.24,NNE,13,10.4,10.4,61,0.00,CLR,,0.00,WeatherDisplay:10.37,2013-02-15 16:35:00,
2013-02-15 10:40:00,60.9,46.9,30.24,NNE,32,9.2,9.2,60,0.00,CLR,,0.00,WeatherDisplay:10.37,2013-02-15 16:40:00,
2013-02-15 10:45:00,60.9,45.6,30.24,NE,39,12.7,12.7,57,0.00,CLR,,0.00,WeatherDisplay:10.37,2013-02-15 16:45:00,
2013-02-15 10:50:00,60.9,44.1,30.24,North,4,10.4,10.4,54,0.00,CLR,,0.00,WeatherDisplay:10.37,2013-02-15 16:50:00,
2013-02-15 10:55:00,60.7,43.5,30.24,North,349,11.5,11.5,53,0.00,CLR,,0.00,WeatherDisplay:10.37,2013-02-15 16:55:00,
2013-02-15 11:00:00,61.1,41.8,30.24,NE,34,11.5,11.5,49,0.00,CLR,,0.00,WeatherDisplay:10.37,2013-02-15 17:00:00,
2013-02-15 11:05:00,61.6,41.7,30.24,NNW,345,10.4,10.4,48,0.00,CLR,,0.00,WeatherDisplay:10.37,2013-02-15 17:05:00,
2013-02-15 11:10:00,62.0,41.5,30.24,NE,43,12.0,12.0,47,0.00,CLR,,0.00,WeatherDisplay:10.37,2013-02-15 17:10:00,
2013-02-15 11:15:00,61.9,40.3,30.24,NE,46,13.8,13.8,45,0.00,CLR,,0.00,WeatherDisplay:10.37,2013-02-15 17:15:00,
2013-02-15 11:20:00,61.9,41.4,30.24,East,85,13.8,13.8,47,0.00,CLR,,0.00,WeatherDisplay:10.37,2013-02-15 17:20:00,
2013-02-15 11:25:00,61.8,40.2,30.24,NNE,19,11.5,11.5,45,0.00,CLR,,0.00,WeatherDisplay:10.37,2013-02-15 17:25:00,
2013-02-15 11:30:00,62.1,40.5,30.24,NNW,342,6.9,6.9,45,0.00,CLR,,0.00,WeatherDisplay:10.37,2013-02-15 17:30:00,
2013-02-15 11:35:00,62.8,41.7,30.24,NNE,33,6.9,6.9,46,0.00,CLR,,0.00,WeatherDisplay:10.37,2013-02-15 17:35:00,
2013-02-15 11:40:00,63.3,41.0,30.23,NNE,19,9.2,9.2,44,0.00,CLR,,0.00,WeatherDisplay:10.37,2013-02-15 17:40:00,
2013-02-15 11:45:00,63.0,40.1,30.23,NNE,27,12.7,12.7,43,0.00,CLR,,0.00,WeatherDisplay:10.37,2013-02-15 17:45:00,
2013-02-15 11:50:00,62.5,40.3,30.23,NE,49,6.9,7.0,44,0.00,CLR,,0.00,WeatherDisplay:10.37,2013-02-15 17:50:00,
2013-02-15 11:55:00,62.8,40.5,30.23,NE,43,9.2,9.2,44,0.00,CLR,,0.00,WeatherDisplay:10.37,2013-02-15 17:55:00,
2013-02-15 12:00:00,62.8,40.0,30.23,NNE,27,10.4,10.4,43,0.00,CLR,,0.00,WeatherDisplay:10.37,2013-02-15 18:00:00,
2013-02-15 12:05:00,62.5,39.1,30.23,NNE,19,8.1,8.1,42,0.00,CLR,,0.00,WeatherDisplay:10.37,2013-02-15 18:05:00,
2013-02-15 12:10:00,62.4,39.0,30.23,NE,37,11.5,11.5,42,0.00,CLR,,0.00,WeatherDisplay:10.37,2013-02-15 18:10:00,
2013-02-15 12:15:00,62.9,39.4,30.22,NNW,342,5.8,5.8,42,0.00,CLR,,0.00,WeatherDisplay:10.37,2013-02-15 18:15:00,
2013-02-15 12:20:00,63.2,39.1,30.22,ENE,60,11.5,11.5,41,0.00,CLR,,0.00,WeatherDisplay:10.37,2013-02-15 18:20:00,
2013-02-15 12:25:00,63.2,38.5,30.22,ENE,72,10.4,10.4,40,0.00,CLR,,0.00,WeatherDisplay:10.37,2013-02-15 18:25:00,
2013-02-15 12:30:00,63.5,38.7,30.21,NNW,333,8.1,8.1,40,0.00,CLR,,0.00,WeatherDisplay:10.37,2013-02-15 18:30:00,
2013-02-15 12:35:00,63.8,38.4,30.21,NNW,333,5.8,5.8,39,0.00,CLR,,0.00,WeatherDisplay:10.37,2013-02-15 18:35:00,
2013-02-15 12:40:00,64.4,38.2,30.21,NNE,24,10.4,10.4,38,0.00,CLR,,0.00,WeatherDisplay:10.37,2013-02-15 18:40:00,
2013-02-15 12:45:00,64.9,37.3,30.20,NE,50,11.5,11.5,36,0.00,CLR,,0.00,WeatherDisplay:10.37,2013-02-15 18:45:00,
2013-02-15 12:50:00,64.5,36.9,30.20,NNE,20,11.5,11.5,36,0.00,CLR,,0.00,WeatherDisplay:10.37,2013-02-15 18:50:00,
2013-02-15 12:55:00,64.3,36.0,30.20,NNE,18,5.8,5.8,35,0.00,CLR,,0.00,WeatherDisplay:10.37,2013-02-15 18:55:00,
2013-02-15 13:00:00,64.5,36.2,30.19,East,94,3.5,3.5,35,0.00,CLR,,0.00,WeatherDisplay:10.37,2013-02-15 19:00:00,
2013-02-15 13:05:00,64.7,35.7,30.19,North,8,4.6,4.6,34,0.00,CLR,,0.00,WeatherDisplay:10.37,2013-02-15 19:05:00,
2013-02-15 13:10:00,65.0,35.2,30.19,NE,56,9.2,9.2,33,0.00,CLR,,0.00,WeatherDisplay:10.37,2013-02-15 19:10:00,
2013-02-15 13:15:00,64.9,35.1,30.19,NE,34,11.5,11.5,33,0.00,CLR,,0.00,WeatherDisplay:10.37,2013-02-15 19:15:00,
2013-02-15 13:21:00,65.1,36.0,30.19,NNW,338,12.7,12.7,34,0.00,CLR,,0.00,WeatherDisplay:10.37,2013-02-15 19:21:00,
2013-02-15 13:26:00,65.4,36.3,30.19,NNW,338,11.5,11.5,34,0.00,CLR,,0.00,WeatherDisplay:10.37,2013-02-15 19:26:00,
2013-02-15 13:31:00,65.9,36.0,30.19,NNE,26,7.0,7.0,33,0.00,CLR,,0.00,WeatherDisplay:10.37,2013-02-15 19:31:00,
2013-02-15 13:36:00,65.5,35.6,30.18,ENE,66,5.8,5.8,33,0.00,CLR,,0.00,WeatherDisplay:10.37,2013-02-15 19:36:00,
2013-02-15 13:41:00,65.6,34.9,30.18,NNW,347,10.4,10.4,32,0.00,CLR,,0.00,WeatherDisplay:10.37,2013-02-15 19:41:00,
2013-02-15 13:46:00,65.6,35.7,30.18,ENE,65,13.8,13.8,33,0.00,CLR,,0.00,WeatherDisplay:10.37,2013-02-15 19:46:00,
2013-02-15 13:51:00,65.6,35.7,30.17,ENE,57,11.5,11.5,33,0.00,CLR,,0.00,WeatherDisplay:10.37,2013-02-15 19:51:00,
2013-02-15 13:56:00,66.1,37.6,30.17,NE,56,12.7,12.7,35,0.00,CLR,,0.00,WeatherDisplay:10.37,2013-02-15 19:56:00,
2013-02-15 14:01:00,65.6,36.5,30.17,NNE,22,8.1,8.1,34,0.00,CLR,,0.00,WeatherDisplay:10.37,2013-02-15 20:01:00,
2013-02-15 14:06:00,66.4,36.4,30.17,NNE,18,10.4,10.4,33,0.00,CLR,,0.00,WeatherDisplay:10.37,2013-02-15 20:06:00,
2013-02-15 14:11:00,66.0,36.1,30.17,NNE,27,5.0,5.4,33,0.00,CLR,,0.00,WeatherDisplay:10.37,2013-02-15 20:11:00,
2013-02-15 14:16:00,65.6,37.9,30.17,NE,47,11.5,11.5,36,0.00,CLR,,0.00,WeatherDisplay:10.37,2013-02-15 20:16:00,
2013-02-15 14:21:00,66.1,37.6,30.16,NE,39,11.5,12.8,35,0.00,CLR,,0.00,WeatherDisplay:10.37,2013-02-15 20:21:00,
2013-02-15 14:26:00,65.6,37.9,30.16,NE,39,9.2,9.2,36,0.00,CLR,,0.00,WeatherDisplay:10.37,2013-02-15 20:26:00,
2013-02-15 14:31:00,65.3,36.9,30.17,NE,41,13.8,13.8,35,0.00,CLR,,0.00,WeatherDisplay:10.37,2013-02-15 20:31:00,
2013-02-15 14:36:00,65.6,37.9,30.17,NNE,12,9.2,9.2,36,0.00,CLR,,0.00,WeatherDisplay:10.37,2013-02-15 20:36:00,
2013-02-15 14:41:00,65.5,37.8,30.17,NE,56,11.5,11.5,36,0.00,CLR,,0.00,WeatherDisplay:10.37,2013-02-15 20:41:00,
2013-02-15 14:46:00,65.9,38.2,30.16,North,352,12.7,12.7,36,0.00,CLR,,0.00,WeatherDisplay:10.37,2013-02-15 20:46:00,
2013-02-15 14:51:00,65.9,38.9,30.16,NE,52,11.5,11.5,37,0.00,CLR,,0.00,WeatherDisplay:10.37,2013-02-15 20:51:00,
2013-02-15 14:56:00,65.6,37.9,30.16,North,356,16.1,16.1,36,0.00,CLR,,0.00,WeatherDisplay:10.37,2013-02-15 20:56:00,
2013-02-15 15:01:00,65.2,38.3,30.17,ENE,58,11.5,11.5,37,0.00,CLR,,0.00,WeatherDisplay:10.37,2013-02-15 21:01:00,
2013-02-15 15:06:00,64.6,38.4,30.16,NNW,346,12.7,12.7,38,0.00,CLR,,0.00,WeatherDisplay:10.37,2013-02-15 21:06:00,
2013-02-15 15:11:00,64.9,39.3,30.16,NNE,12,9.2,9.2,39,0.00,CLR,,0.00,WeatherDisplay:10.37,2013-02-15 21:11:00,
2013-02-15 15:16:00,65.3,39.0,30.16,NNW,346,10.4,10.4,38,0.00,CLR,,0.00,WeatherDisplay:10.37,2013-02-15 21:16:00,
2013-02-15 15:21:00,65.1,38.8,30.16,NNE,21,11.5,11.5,38,0.00,CLR,,0.00,WeatherDisplay:10.37,2013-02-15 21:21:00,
2013-02-15 15:26:00,64.6,38.4,30.16,NNE,12,12.7,12.7,38,0.00,CLR,,0.00,WeatherDisplay:10.37,2013-02-15 21:26:00,
2013-02-15 15:31:00,64.6,38.4,30.16,NE,45,9.2,9.2,38,0.00,CLR,,0.00,WeatherDisplay:10.37,2013-02-15 21:31:00,
2013-02-15 15:36:00,64.6,38.4,30.16,NE,47,11.5,11.5,38,0.00,CLR,,0.00,WeatherDisplay:10.37,2013-02-15 21:36:00,
2013-02-15 15:41:00,64.5,39.0,30.16,NE,36,16.1,16.1,39,0.00,CLR,,0.00,WeatherDisplay:10.37,2013-02-15 21:41:00,
2013-02-15 15:46:00,64.4,38.2,30.16,NE,46,9.2,9.2,38,0.00,CLR,,0.00,WeatherDisplay:10.37,2013-02-15 21:46:00,
2013-02-15 15:51:00,64.7,38.5,30.16,NE,40,11.5,11.5,38,0.00,CLR,,0.00,WeatherDisplay:10.37,2013-02-15 21:51:00,
2013-02-15 15:56:00,64.8,38.6,30.16,North,9,13.8,13.8,38,0.00,CLR,,0.00,WeatherDisplay:10.37,2013-02-15 21:56:00,
2013-02-15 16:01:00,65.0,38.8,30.16,NNE,25,15.0,15.0,38,0.00,CLR,,0.00,WeatherDisplay:10.37,2013-02-15 22:01:00,
2013-02-15 16:06:00,64.7,37.8,30.16,NE,37,12.7,12.7,37,0.00,CLR,,0.00,WeatherDisplay:10.37,2013-02-15 22:06:00,
2013-02-15 16:11:00,63.8,38.4,30.17,NNE,19,11.5,11.5,39,0.00,CLR,,0.00,WeatherDisplay:10.37,2013-02-15 22:11:00,
2013-02-15 16:16:00,63.4,38.0,30.17,NE,47,11.5,11.5,39,0.00,CLR,,0.00,WeatherDisplay:10.37,2013-02-15 22:16:00,
2013-02-15 16:21:00,63.4,38.0,30.17,ENE,71,11.5,11.5,39,0.00,CLR,,0.00,WeatherDisplay:10.37,2013-02-15 22:21:00,
2013-02-15 16:26:00,63.7,39.5,30.17,NE,54,12.7,12.7,41,0.00,CLR,,0.00,WeatherDisplay:10.37,2013-02-15 22:26:00,
2013-02-15 16:31:00,63.0,38.9,30.17,North,359,18.4,18.4,41,0.00,CLR,,0.00,WeatherDisplay:10.37,2013-02-15 22:31:00,
2013-02-15 16:36:00,62.3,38.9,30.18,NNE,16,15.0,15.0,42,0.00,CLR,,0.00,WeatherDisplay:10.37,2013-02-15 22:36:00,
2013-02-15 16:41:00,61.8,39.1,30.18,North,11,16.1,16.1,43,0.00,CLR,,0.00,WeatherDisplay:10.37,2013-02-15 22:41:00,
2013-02-15 16:46:00,61.8,39.6,30.18,NE,43,6.9,6.9,44,0.00,CLR,,0.00,WeatherDisplay:10.37,2013-02-15 22:46:00,
2013-02-15 16:51:00,62.0,39.8,30.18,NNE,32,19.6,19.6,44,0.00,CLR,,0.00,WeatherDisplay:10.37,2013-02-15 22:51:00,
2013-02-15 16:56:00,62.0,39.8,30.18,NNE,15,16.1,16.1,44,0.00,CLR,,0.00,WeatherDisplay:10.37,2013-02-15 22:56:00,
2013-02-15 17:01:00,61.8,39.6,30.18,NNE,18,17.3,17.3,44,0.00,CLR,,0.00,WeatherDisplay:10.37,2013-02-15 23:01:00,
2013-02-15 17:06:00,61.5,39.4,30.18,NNE,22,16.1,16.1,44,0.00,CLR,,0.00,WeatherDisplay:10.37,2013-02-15 23:06:00,
2013-02-15 17:11:00,61.4,39.9,30.19,NNE,25,11.5,11.5,45,0.00,CLR,,0.00,WeatherDisplay:10.37,2013-02-15 23:11:00,
2013-02-15 17:16:00,61.3,39.8,30.18,NNE,15,12.7,12.7,45,0.00,CLR,,0.00,WeatherDisplay:10.37,2013-02-15 23:16:00,
2013-02-15 17:21:00,61.1,39.6,30.19,NE,37,17.3,17.3,45,0.00,CLR,,0.00,WeatherDisplay:10.37,2013-02-15 23:21:00,
2013-02-15 17:26:00,60.5,40.7,30.19,NNW,327,18.4,18.4,48,0.00,CLR,,0.00,WeatherDisplay:10.37,2013-02-15 23:26:00,
2013-02-15 17:31:00,59.9,40.7,30.20,NE,56,18.4,18.4,49,0.00,CLR,,0.00,WeatherDisplay:10.37,2013-02-15 23:31:00,
2013-02-15 17:36:00,59.2,40.6,30.20,North,11,19.6,19.6,50,0.00,CLR,,0.00,WeatherDisplay:10.37,2013-02-15 23:36:00,
2013-02-15 17:41:00,58.8,40.2,30.21,NNE,18,17.3,17.3,50,0.00,CLR,,0.00,WeatherDisplay:10.37,2013-02-15 23:41:00,
2013-02-15 17:46:00,58.4,40.3,30.21,NNE,17,18.4,18.4,51,0.00,CLR,,0.00,WeatherDisplay:10.37,2013-02-15 23:46:00,
2013-02-15 17:51:00,58.1,40.6,30.21,NNE,27,16.1,16.1,52,0.00,CLR,,0.00,WeatherDisplay:10.37,2013-02-15 23:51:00,
2013-02-15 17:56:00,57.6,40.1,30.21,NNE,25,13.8,13.8,52,0.00,CLR,,0.00,WeatherDisplay:10.37,2013-02-15 23:56:00,
2013-02-15 18:01:00,57.3,39.8,30.22,NNE,30,18.4,18.4,52,0.00,CLR,,0.00,WeatherDisplay:10.37,2013-02-16 00:01:00,
2013-02-15 18:06:00,57.0,39.5,30.22,NNE,33,17.3,17.3,52,0.00,CLR,,0.00,WeatherDisplay:10.37,2013-02-16 00:06:00,
2013-02-15 18:11:00,56.6,39.7,30.22,NNE,15,12.7,12.7,53,0.00,CLR,,0.00,WeatherDisplay:10.37,2013-02-16 00:11:00,
2013-02-15 18:16:00,56.2,39.3,30.22,North,1,17.3,17.3,53,0.00,CLR,,0.00,WeatherDisplay:10.37,2013-02-16 00:16:00,
2013-02-15 18:21:00,56.0,39.6,30.23,North,5,17.3,17.3,54,0.00,CLR,,0.00,WeatherDisplay:10.37,2013-02-16 00:21:00,
2013-02-15 18:26:00,55.7,39.3,30.23,North,4,19.6,19.6,54,0.00,CLR,,0.00,WeatherDisplay:10.37,2013-02-16 00:26:00,
2013-02-15 18:31:00,55.5,39.1,30.23,NNE,18,16.1,16.1,54,0.00,CLR,,0.00,WeatherDisplay:10.37,2013-02-16 00:31:00,
2013-02-15 18:36:00,55.3,39.4,30.23,NNE,25,18.4,18.4,55,0.00,CLR,,0.00,WeatherDisplay:10.37,2013-02-16 00:36:00,
2013-02-15 18:41:00,54.9,39.5,30.24,NNW,342,19.6,19.6,56,0.00,CLR,,0.00,WeatherDisplay:10.37,2013-02-16 00:41:00,
2013-02-15 18:46:00,54.6,39.7,30.25,NE,40,12.7,12.7,57,0.00,CLR,,0.00,WeatherDisplay:10.37,2013-02-16 00:46:00,
2013-02-15 18:51:00,54.4,39.5,30.25,North,9,21.9,21.9,57,0.00,CLR,,0.00,WeatherDisplay:10.37,2013-02-16 00:51:00,
2013-02-15 18:56:00,54.2,39.7,30.25,NE,37,18.4,18.4,58,0.00,CLR,,0.00,WeatherDisplay:10.37,2013-02-16 00:56:00,
2013-02-15 19:01:00,54.0,39.5,30.25,North,1,18.4,18.4,58,0.00,CLR,,0.00,WeatherDisplay:10.37,2013-02-16 01:01:00,
2013-02-15 19:06:00,53.9,39.5,30.25,North,357,19.6,19.6,58,0.00,CLR,,0.00,WeatherDisplay:10.37,2013-02-16 01:06:00,
2013-02-15 19:11:00,53.7,39.3,30.26,North,5,19.6,19.6,58,0.00,CLR,,0.00,WeatherDisplay:10.37,2013-02-16 01:11:00,
2013-02-15 19:16:00,53.5,39.1,30.26,NNE,20,19.6,19.6,58,0.00,CLR,,0.00,WeatherDisplay:10.37,2013-02-16 01:16:00,
2013-02-15 19:21:00,53.4,39.0,30.26,NE,53,20.7,20.7,58,0.00,CLR,,0.00,WeatherDisplay:10.37,2013-02-16 01:21:00,
2013-02-15 19:26:00,53.3,38.9,30.26,NE,46,19.6,19.6,58,0.00,CLR,,0.00,WeatherDisplay:10.37,2013-02-16 01:26:00,
2013-02-15 19:31:00,53.2,38.8,30.26,NNW,347,15.0,15.0,58,0.00,CLR,,0.00,WeatherDisplay:10.37,2013-02-16 01:31:00,
2013-02-15 19:36:00,53.3,38.9,30.27,NNE,20,18.4,18.4,58,0.00,CLR,,0.00,WeatherDisplay:10.37,2013-02-16 01:36:00,
2013-02-15 19:41:00,53.3,38.9,30.27,NNE,18,17.3,17.3,58,0.00,CLR,,0.00,WeatherDisplay:10.37,2013-02-16 01:41:00,
2013-02-15 19:46:00,53.4,38.5,30.27,North,8,19.6,19.6,57,0.00,CLR,,0.00,WeatherDisplay:10.37,2013-02-16 01:46:00,
2013-02-15 19:51:00,53.4,38.5,30.28,NE,44,17.3,17.3,57,0.00,CLR,,0.00,WeatherDisplay:10.37,2013-02-16 01:51:00,
2013-02-15 19:56:00,53.4,38.5,30.28,North,359,15.0,15.0,57,0.00,CLR,,0.00,WeatherDisplay:10.37,2013-02-16 01:56:00,
2013-02-15 20:01:00,53.4,38.1,30.28,North,357,23.0,23.0,56,0.00,CLR,,0.00,WeatherDisplay:10.37,2013-02-16 02:01:00,
2013-02-15 20:06:00,53.3,38.0,30.29,NNE,12,17.3,17.3,56,0.00,CLR,,0.00,WeatherDisplay:10.37,2013-02-16 02:06:00,
2013-02-15 20:11:00,53.3,38.0,30.29,NE,56,16.1,16.1,56,0.00,CLR,,0.00,WeatherDisplay:10.37,2013-02-16 02:11:00,
2013-02-15 20:16:00,53.2,38.4,30.30,NNE,13,17.3,17.3,57,0.00,CLR,,0.00,WeatherDisplay:10.37,2013-02-16 02:16:00,
2013-02-15 20:21:00,53.2,38.4,30.30,NE,36,16.1,16.1,57,0.00,CLR,,0.00,WeatherDisplay:10.37,2013-02-16 02:21:00,
2013-02-15 20:26:00,53.1,37.8,30.31,North,357,19.6,19.6,56,0.00,CLR,,0.00,WeatherDisplay:10.37,2013-02-16 02:26:00,
2013-02-15 20:31:00,53.0,37.7,30.31,NE,36,20.7,20.7,56,0.00,CLR,,0.00,WeatherDisplay:10.37,2013-02-16 02:31:00,
2013-02-15 20:36:00,52.8,37.5,30.31,NNE,18,17.3,17.3,56,0.00,CLR,,0.00,WeatherDisplay:10.37,2013-02-16 02:36:00,
2013-02-15 20:41:00,52.7,37.4,30.32,NNE,15,17.3,17.3,56,0.00,CLR,,0.00,WeatherDisplay:10.37,2013-02-16 02:41:00,
2013-02-15 20:46:00,52.6,37.3,30.31,NE,36,18.4,18.4,56,0.00,CLR,,0.00,WeatherDisplay:10.37,2013-02-16 02:46:00,
2013-02-15 20:51:00,52.5,37.2,30.32,North,6,19.6,19.6,56,0.00,CLR,,0.00,WeatherDisplay:10.37,2013-02-16 02:51:00,
2013-02-15 20:56:00,52.3,37.5,30.32,NNE,30,21.9,21.9,57,0.00,CLR,,0.00,WeatherDisplay:10.37,2013-02-16 02:56:00,
2013-02-15 21:01:00,52.2,37.4,30.32,NNE,19,15.0,15.0,57,0.00,CLR,,0.00,WeatherDisplay:10.37,2013-02-16 03:01:00,
2013-02-15 21:06:00,52.0,37.2,30.33,NNE,33,19.6,19.6,57,0.00,CLR,,0.00,WeatherDisplay:10.37,2013-02-16 03:06:00,
2013-02-15 21:11:00,51.8,37.0,30.33,NNE,19,11.5,11.5,57,0.00,CLR,,0.00,WeatherDisplay:10.37,2013-02-16 03:11:00,
2013-02-15 21:16:00,51.7,36.9,30.33,NNE,20,19.6,19.6,57,0.00,CLR,,0.00,WeatherDisplay:10.37,2013-02-16 03:16:00,
2013-02-15 21:21:00,51.6,36.9,30.34,NNE,30,17.3,17.3,57,0.00,CLR,,0.00,WeatherDisplay:10.37,2013-02-16 03:21:00,
2013-02-15 21:26:00,51.4,36.7,30.34,NNE,13,11.5,11.5,57,0.00,CLR,,0.00,WeatherDisplay:10.37,2013-02-16 03:26:00,
2013-02-15 21:31:00,51.2,36.5,30.34,North,8,22.0,22.0,57,0.00,CLR,,0.00,WeatherDisplay:10.37,2013-02-16 03:31:00,
2013-02-15 21:36:00,50.8,36.1,30.35,North,356,17.3,17.3,57,0.00,CLR,,0.00,WeatherDisplay:10.37,2013-02-16 03:36:00,
2013-02-15 21:41:00,50.5,36.3,30.35,North,4,18.4,18.4,58,0.00,CLR,,0.00,WeatherDisplay:10.37,2013-02-16 03:41:00,
2013-02-15 21:46:00,50.2,36.4,30.35,North,4,19.6,19.6,59,0.00,CLR,,0.00,WeatherDisplay:10.37,2013-02-16 03:46:00,
2013-02-15 21:51:00,49.9,36.6,30.35,North,349,19.6,19.6,60,0.00,CLR,,0.00,WeatherDisplay:10.37,2013-02-16 03:51:00,
2013-02-15 21:56:00,49.7,36.4,30.36,North,357,15.0,15.0,60,0.00,CLR,,0.00,WeatherDisplay:10.37,2013-02-16 03:56:00,
2013-02-15 22:01:00,49.6,34.1,30.36,NNE,25,13.8,13.8,55,0.00,CLR,,0.00,WeatherDisplay:10.37,2013-02-16 04:01:00,
2013-02-15 22:06:00,49.4,33.4,30.36,NNE,19,17.3,17.3,54,0.00,CLR,,0.00,WeatherDisplay:10.37,2013-02-16 04:06:00,
2013-02-15 22:11:00,49.3,33.3,30.36,NNE,27,18.0,18.0,54,0.00,CLR,,0.00,WeatherDisplay:10.37,2013-02-16 04:11:00,
2013-02-15 22:16:00,49.3,33.3,30.37,NNE,17,16.1,16.1,54,0.00,CLR,,0.00,WeatherDisplay:10.37,2013-02-16 04:16:00,
2013-02-15 22:21:00,49.3,33.3,30.37,NNE,27,12.7,12.7,54,0.00,CLR,,0.00,WeatherDisplay:10.37,2013-02-16 04:21:00,
2013-02-15 22:26:00,49.3,33.3,30.37,North,358,16.1,16.1,54,0.00,CLR,,0.00,WeatherDisplay:10.37,2013-02-16 04:26:00,
2013-02-15 22:31:00,49.2,33.3,30.37,NE,34,15.0,15.0,54,0.00,CLR,,0.00,WeatherDisplay:10.37,2013-02-16 04:31:00,
2013-02-15 22:36:00,49.2,32.8,30.37,NNE,30,13.8,13.8,53,0.00,CLR,,0.00,WeatherDisplay:10.37,2013-02-16 04:36:00,
2013-02-15 22:41:00,49.2,32.8,30.38,North,357,15.0,15.0,53,0.00,CLR,,0.00,WeatherDisplay:10.37,2013-02-16 04:41:00,
2013-02-15 22:46:00,49.1,33.2,30.38,NNE,32,11.5,11.5,54,0.00,CLR,,0.00,WeatherDisplay:10.37,2013-02-16 04:46:00,
2013-02-15 22:51:00,48.9,32.0,30.38,NNE,15,13.8,13.8,52,0.00,CLR,,0.00,WeatherDisplay:10.37,2013-02-16 04:51:00,
2013-02-15 22:56:00,48.9,31.5,30.38,NNW,345,11.5,11.5,51,0.00,CLR,,0.00,WeatherDisplay:10.37,2013-02-16 04:56:00,
2013-02-15 23:00:00,48.8,31.5,30.38,ENE,57,8.1,8.1,51,0.00,CLR,,0.00,WeatherDisplay:10.37,2013-02-16 05:00:00,
2013-02-15 23:05:00,48.9,30.1,30.38,ENE,64,11.5,11.5,48,0.00,CLR,,0.00,WeatherDisplay:10.37,2013-02-16 05:05:00,
2013-02-15 23:10:00,49.0,27.5,30.38,NNE,23,11.5,11.5,43,0.00,CLR,,0.00,WeatherDisplay:10.37,2013-02-16 05:10:00,
2013-02-15 23:15:00,49.0,24.5,30.38,NE,39,13.8,13.8,38,0.00,CLR,,0.00,WeatherDisplay:10.37,2013-02-16 05:15:00,
2013-02-15 23:20:00,49.1,23.9,30.38,NNE,20,12.7,12.7,37,0.00,CLR,,0.00,WeatherDisplay:10.37,2013-02-16 05:20:00,
2013-02-15 23:23:00,49.0,23.8,30.38,NNE,23,13.8,13.8,37,0.00,CLR,,0.00,WeatherDisplay:10.37,2013-02-16 05:23:00,
2013-02-15 23:28:00,48.9,24.4,30.38,NE,41,8.1,8.1,38,0.00,CLR,,0.00,WeatherDisplay:10.37,2013-02-16 05:28:00,
2013-02-15 23:33:00,48.9,25.6,30.38,North,1,15.0,15.0,40,0.00,CLR,,0.00,WeatherDisplay:10.37,2013-02-16 05:33:00,
2013-02-15 23:38:00,48.8,26.7,30.38,NE,47,11.5,11.5,42,0.00,CLR,,0.00,WeatherDisplay:10.37,2013-02-16 05:38:00,
2013-02-15 23:43:00,48.8,27.8,30.38,North,356,11.5,11.5,44,0.00,CLR,,0.00,WeatherDisplay:10.37,2013-02-16 05:43:00,
2013-02-15 23:48:00,48.7,27.2,30.38,NNW,347,12.7,12.7,43,0.00,CLR,,0.00,WeatherDisplay:10.37,2013-02-16 05:48:00,
2013-02-15 23:53:00,48.5,25.8,30.38,North,356,10.4,10.4,41,0.00,CLR,,0.00,WeatherDisplay:10.37,2013-02-16 05:53:00,
2013-02-15 23:58:00,48.3,26.2,30.38,NNE,23,11.5,11.5,42,0.00,CLR,,0.00,WeatherDisplay:10.37,2013-02-16 05:58:00,